Union Aéronautique de la Côte d'Azur

Union Aéronautique de la Côte d'Azur
UACA
Approuvé A.T.O. EASA – N°FR.ATO.0108

UNION des aéroclubs
Cannes “Ailes d’Azur”, Nice “Côte d’Azur”, Grasse “St Exupery”, ACCA “Francis Séverac”

Un cache-pitot se trouve à bord de chaque avion. Pensez à le mettre en place à la fin de chaque vol !

Avant de quitter l'avion, vérifiez que vous n'emportez pas la checklist

Un vol ne s'entreprend qu'avec un pare-brise parfaitement propre, il en va de votre sécurité, et de celle des autres

Après chaque vol, merci de mettre en place les pares-soleil!


Météo à Cannes:
METAR
LFMD 190230Z AUTO VRB05KT 9999 FEW060 BKN200 BKN240 03/00 Q1013 NOSIG =
LFMD 190200Z 1903/2003 VRB03KT CAVOK BECMG 1910/1913 28007KT PROB30 TEMPO 1916/1922 4000 RA BKN014 BECMG 1919/1921 VRB03KT

TAF
LFMD 190200Z 1903/2003 VRB03KT CAVOK BECMG 1910/1913 28007KT PROB30 TEMPO 1916/1922 4000 RA BKN014 BECMG 1919/1921 VRB03KT =

SR / SS: 07:03 / 16:22 UTC (LFMD 2019-01-19)